Location: Menard
(37.9101°N, 89.8398°W)
Time: 02:22:49
(UTC+00:00)

ACS3 Solar Sail - Pass Details

Date: 18 October 2024
Orbit: 961 x 1022 km, 97.5° (Epoch: 03 November)

Event Time Altitude Azimuth Distance (km) Brightness Sun altitude
Exits shadow 02:27:11 46° 295° (WNW) 1,349 2.7 -37.7°
Drops below altitude 10° 02:32:15 10° 338° (NNW) 2,830 4.6 -38.6°
Sets 02:34:51 0° 343° (NNW) 3,783 5.3 -39.1°
